DKH1375 ZSPD-RKPC

Flight info

Callsign DKH1375
Flight time 1h 11m
Altitude 39000
Route LAM81D LAMEN/N0456F390 A593 SADLI Y590 ELGEP Y722 SOSDO SOSDO2P
Aircraft A20N/M-SDE2E3FGHIRWXY/LB1

Departure

Time 2026-05-05 23:45
Airport Shanghai Pudong International Airport (ZSPD)

Arrival

Time 2026-05-06 00:56
Airport Jeju International Airport (RKPC)
Time Latitude Longitude Altitude Speed Heading
2026-05-05 23:22 31.14546 121.79889 32 ft 0 kts 72°
2026-05-05 23:35 31.14543 121.79878 32 ft 2 kts 72°
2026-05-05 23:35 31.14539 121.79861 32 ft 2 kts 72°
2026-05-05 23:36 31.14534 121.79845 32 ft 2 kts 72°
2026-05-05 23:36 31.14529 121.79828 32 ft 2 kts 72°
2026-05-05 23:36 31.14526 121.79816 31 ft 0 kts 72°
2026-05-05 23:36 31.14521 121.79802 31 ft 2 kts 50°
2026-05-05 23:37 31.14510 121.79790 31 ft 2 kts 30°
2026-05-05 23:37 31.14495 121.79784 30 ft 2 kts
2026-05-05 23:37 31.14481 121.79784 30 ft 1 kts 345°
2026-05-05 23:37 31.14475 121.79787 30 ft 1 kts 338°
2026-05-05 23:38 31.14472 121.79787 29 ft 0 kts 340°
2026-05-05 23:40 31.14482 121.79784 30 ft 5 kts 340°
2026-05-05 23:40 31.14542 121.79761 31 ft 13 kts 343°
2026-05-05 23:40 31.14589 121.79681 30 ft 13 kts 266°
2026-05-05 23:40 31.14555 121.79542 27 ft 22 kts 251°
2026-05-05 23:41 31.14558 121.79414 25 ft 15 kts 319°
2026-05-05 23:41 31.14661 121.79371 25 ft 18 kts 343°
2026-05-05 23:41 31.14803 121.79319 25 ft 24 kts 342°
2026-05-05 23:41 31.14995 121.79245 22 ft 33 kts 342°
2026-05-05 23:42 31.15232 121.79156 20 ft 36 kts 342°
2026-05-05 23:42 31.15470 121.79065 18 ft 34 kts 342°
2026-05-05 23:42 31.15690 121.78982 21 ft 31 kts 342°
2026-05-05 23:42 31.15894 121.78905 22 ft 30 kts 342°
2026-05-05 23:43 31.16078 121.78836 22 ft 23 kts 342°
2026-05-05 23:43 31.16156 121.78777 21 ft 10 kts 278°
2026-05-05 23:43 31.16142 121.78711 21 ft 7 kts 251°
2026-05-05 23:43 31.16117 121.78629 21 ft 13 kts 239°
2026-05-05 23:44 31.16045 121.78626 21 ft 0 kts 161°
2026-05-05 23:44 31.16002 121.78644 22 ft 33 kts 161°
2026-05-05 23:44 31.15519 121.78826 22 ft 108 kts 162°
2026-05-05 23:44 31.14626 121.79170 129 ft 154 kts 162°
2026-05-05 23:45 31.13599 121.79556 752 ft 156 kts 162°
2026-05-05 23:45 31.12610 121.79929 1577 ft 149 kts 162°
2026-05-05 23:45 31.11614 121.80273 2180 ft 155 kts 163°
2026-05-05 23:45 31.10533 121.80635 2615 ft 171 kts 163°
2026-05-05 23:46 31.09324 121.81038 3035 ft 190 kts 163°
2026-05-05 23:46 31.07987 121.81486 3392 ft 214 kts 163°
2026-05-05 23:46 31.06477 121.81992 3903 ft 234 kts 163°
2026-05-05 23:46 31.04857 121.82535 4453 ft 253 kts 163°
2026-05-05 23:47 31.03122 121.83116 5157 ft 265 kts 163°
2026-05-05 23:47 31.01352 121.83709 6002 ft 271 kts 163°
2026-05-05 23:47 30.99539 121.84344 6864 ft 275 kts 160°
2026-05-05 23:47 30.97743 121.85156 7708 ft 281 kts 158°
2026-05-05 23:48 30.95929 121.86021 8384 ft 287 kts 158°
2026-05-05 23:48 30.94059 121.86912 8792 ft 291 kts 159°
2026-05-05 23:48 30.92148 121.87720 8912 ft 292 kts 163°
2026-05-05 23:48 30.90219 121.88439 8922 ft 292 kts 163°
2026-05-05 23:49 30.88263 121.89153 8922 ft 291 kts 163°
2026-05-05 23:49 30.86330 121.89860 8926 ft 291 kts 163°
2026-05-05 23:49 30.84397 121.90569 8928 ft 291 kts 162°
2026-05-05 23:49 30.82595 121.91615 8920 ft 296 kts 139°
2026-05-05 23:50 30.81358 121.93558 9419 ft 304 kts 112°
2026-05-05 23:50 30.80956 121.95940 10334 ft 303 kts 86°
2026-05-05 23:50 30.81380 121.98313 10943 ft 312 kts 70°
2026-05-05 23:50 30.82102 122.00777 11363 ft 329 kts 69°
2026-05-05 23:51 30.82862 122.03335 11731 ft 347 kts 69°
2026-05-05 23:51 30.83658 122.06074 12091 ft 365 kts 70°
2026-05-05 23:51 30.84463 122.08911 12688 ft 373 kts 70°
2026-05-05 23:51 30.85268 122.11788 13416 ft 377 kts 70°
2026-05-05 23:52 30.86068 122.14668 14143 ft 380 kts 70°
2026-05-05 23:52 30.86873 122.17574 14850 ft 382 kts 70°
2026-05-05 23:52 30.87694 122.20538 15557 ft 385 kts 70°
2026-05-05 23:52 30.88512 122.23495 16224 ft 388 kts 70°
2026-05-05 23:53 30.89394 122.26444 16869 ft 389 kts 64°
2026-05-05 23:53 30.90618 122.29244 17514 ft 389 kts 55°
2026-05-05 23:53 30.92193 122.31808 18150 ft 388 kts 48°
2026-05-05 23:53 30.93929 122.34199 18732 ft 391 kts 46°
2026-05-05 23:54 30.95715 122.36603 19272 ft 395 kts 46°
2026-05-05 23:54 30.97504 122.39027 19835 ft 399 kts 47°
2026-05-05 23:54 30.99043 122.41760 20365 ft 408 kts 61°
2026-05-05 23:54 30.99919 122.44920 20931 ft 418 kts 76°
2026-05-05 23:55 31.00123 122.48285 21478 ft 424 kts 85°
2026-05-05 23:55 31.00118 122.51733 21978 ft 429 kts 86°
2026-05-05 23:55 31.00092 122.55219 22464 ft 433 kts 86°
2026-05-05 23:55 31.00070 122.58721 22960 ft 437 kts 86°
2026-05-05 23:56 31.00057 122.62269 23420 ft 441 kts 86°
2026-05-05 23:56 31.00050 122.65863 23895 ft 445 kts 86°
2026-05-05 23:56 31.00047 122.69459 24388 ft 446 kts 86°
2026-05-05 23:56 31.00042 122.73061 24899 ft 448 kts 86°
2026-05-05 23:57 31.00041 122.76698 25370 ft 451 kts 85°
2026-05-05 23:57 31.00039 122.80312 25866 ft 452 kts 85°
2026-05-05 23:57 31.00036 122.83964 26300 ft 455 kts 85°
2026-05-05 23:57 31.00033 122.87638 26717 ft 458 kts 85°
2026-05-05 23:58 31.00025 122.91358 27164 ft 460 kts 85°
2026-05-05 23:58 31.00035 122.95074 27528 ft 461 kts 83°
2026-05-05 23:58 31.00469 122.98731 27831 ft 456 kts 71°
2026-05-05 23:58 31.01545 123.02157 28200 ft 450 kts 59°
2026-05-05 23:59 31.03153 123.05236 28584 ft 444 kts 50°
2026-05-05 23:59 31.04954 123.08167 28953 ft 444 kts 49°
2026-05-05 23:59 31.06778 123.11083 29245 ft 446 kts 49°
2026-05-05 23:59 31.08609 123.14025 29567 ft 446 kts 49°
2026-05-06 00:00 31.10402 123.16918 29945 ft 445 kts 49°
2026-05-06 00:00 31.12199 123.19840 30333 ft 443 kts 49°
2026-05-06 00:00 31.13987 123.22755 30742 ft 440 kts 49°
2026-05-06 00:00 31.15756 123.25654 31175 ft 436 kts 49°
2026-05-06 00:01 31.17491 123.28490 31542 ft 434 kts 49°
2026-05-06 00:01 31.19238 123.31354 31890 ft 431 kts 49°
2026-05-06 00:01 31.20984 123.34221 32235 ft 430 kts 49°
2026-05-06 00:01 31.22702 123.37038 32556 ft 428 kts 49°
2026-05-06 00:02 31.24413 123.39846 32964 ft 424 kts 48°
2026-05-06 00:02 31.26099 123.42621 33307 ft 422 kts 49°
2026-05-06 00:02 31.27816 123.45444 33488 ft 424 kts 48°
2026-05-06 00:02 31.29515 123.48240 33625 ft 427 kts 49°
2026-05-06 00:03 31.31243 123.51090 33751 ft 430 kts 49°
2026-05-06 00:03 31.32962 123.53926 33878 ft 433 kts 49°
2026-05-06 00:03 31.34726 123.56804 34071 ft 434 kts 49°
2026-05-06 00:03 31.36488 123.59676 34292 ft 434 kts 49°
2026-05-06 00:04 31.40028 123.65449 34496 ft 440 kts 50°
2026-05-06 00:04 31.41805 123.68356 34599 ft 443 kts 50°
2026-05-06 00:04 31.43584 123.71275 34781 ft 443 kts 50°
2026-05-06 00:05 31.47171 123.77168 35060 ft 447 kts 50°
2026-05-06 00:05 31.48968 123.80129 35077 ft 449 kts 50°
2026-05-06 00:06 31.52592 123.86095 35083 ft 450 kts 50°
2026-05-06 00:06 31.56180 123.92077 35087 ft 452 kts 52°
2026-05-06 00:07 31.59371 123.98473 35090 ft 456 kts 58°
2026-05-06 00:07 31.61923 124.05279 35081 ft 459 kts 64°
2026-05-06 00:08 31.63832 124.12450 35073 ft 465 kts 70°
2026-05-06 00:08 31.65457 124.19773 35070 ft 466 kts 71°
2026-05-06 00:09 31.67065 124.27057 35068 ft 470 kts 71°
2026-05-06 00:09 31.68701 124.34457 35072 ft 472 kts 71°
2026-05-06 00:10 31.70340 124.41880 35069 ft 472 kts 71°
2026-05-06 00:10 31.72000 124.49392 35072 ft 477 kts 71°
2026-05-06 00:11 31.73640 124.56860 35075 ft 478 kts 72°
2026-05-06 00:11 31.75307 124.64464 35076 ft 480 kts 72°
2026-05-06 00:12 31.76957 124.72044 35080 ft 481 kts 72°
2026-05-06 00:12 31.78599 124.79585 34980 ft 482 kts 73°
2026-05-06 00:12 31.79430 124.83413 34723 ft 480 kts 73°
2026-05-06 00:13 31.80241 124.87159 34475 ft 478 kts 73°
2026-05-06 00:13 31.81058 124.90940 34225 ft 474 kts 73°
2026-05-06 00:13 31.81827 124.94693 33974 ft 472 kts 77°
2026-05-06 00:13 31.82280 124.98493 33729 ft 471 kts 84°
2026-05-06 00:14 31.82360 125.02303 33480 ft 472 kts 90°
2026-05-06 00:14 31.82052 125.06161 33231 ft 474 kts 97°
2026-05-06 00:14 31.81471 125.09976 32981 ft 476 kts 99°
2026-05-06 00:14 31.80832 125.13769 32724 ft 479 kts 100°
2026-05-06 00:15 31.80176 125.17626 32476 ft 481 kts 99°
2026-05-06 00:15 31.79529 125.21445 32225 ft 482 kts 99°
2026-05-06 00:15 31.78886 125.25298 31978 ft 484 kts 99°
2026-05-06 00:15 31.78239 125.29198 31727 ft 484 kts 99°
2026-05-06 00:16 31.77600 125.33057 31481 ft 485 kts 99°
2026-05-06 00:16 31.76960 125.36923 31230 ft 486 kts 99°
2026-05-06 00:16 31.76320 125.40818 30977 ft 488 kts 100°
2026-05-06 00:16 31.75666 125.44763 30725 ft 490 kts 100°
2026-05-06 00:17 31.75020 125.48664 30480 ft 491 kts 101°
2026-05-06 00:17 31.74358 125.52615 30231 ft 492 kts 101°
2026-05-06 00:17 31.73702 125.56535 29982 ft 493 kts 101°
2026-05-06 00:17 31.73048 125.60449 29737 ft 493 kts 101°
2026-05-06 00:18 31.72609 125.64454 29486 ft 493 kts 92°
2026-05-06 00:18 31.72698 125.68427 29239 ft 492 kts 83°
2026-05-06 00:18 31.73310 125.72391 28995 ft 492 kts 75°
2026-05-06 00:18 31.74169 125.76257 28745 ft 489 kts 74°
2026-05-06 00:19 31.75072 125.80091 28502 ft 489 kts 73°
2026-05-06 00:19 31.75962 125.83932 28264 ft 486 kts 74°
2026-05-06 00:19 31.76818 125.87703 28014 ft 483 kts 73°
2026-05-06 00:19 31.78108 125.91352 27743 ft 479 kts 56°
2026-05-06 00:20 31.80288 125.94227 27506 ft 470 kts 36°
2026-05-06 00:20 31.83087 125.96101 27269 ft 461 kts 18°
2026-05-06 00:20 31.86109 125.97342 27039 ft 458 kts 15°
2026-05-06 00:20 31.89087 125.98515 26804 ft 454 kts 15°
2026-05-06 00:21 31.92030 125.99698 26569 ft 451 kts 17°
2026-05-06 00:21 31.95021 126.00929 26321 ft 449 kts 17°
2026-05-06 00:21 31.97927 126.02148 26085 ft 447 kts 17°
2026-05-06 00:21 32.00842 126.03382 25836 ft 444 kts 17°
2026-05-06 00:22 32.03773 126.04627 25594 ft 442 kts 17°
2026-05-06 00:22 32.06642 126.05843 25354 ft 439 kts 17°
2026-05-06 00:22 32.09508 126.07056 25112 ft 436 kts 17°
2026-05-06 00:22 32.12352 126.08257 24867 ft 433 kts 17°
2026-05-06 00:23 32.15184 126.09454 24620 ft 430 kts 17°
2026-05-06 00:23 32.17960 126.10629 24382 ft 428 kts 17°
2026-05-06 00:23 32.20747 126.11811 24141 ft 426 kts 17°
2026-05-06 00:23 32.23520 126.12987 23898 ft 424 kts 17°
2026-05-06 00:24 32.26307 126.14170 23657 ft 422 kts 17°
2026-05-06 00:24 32.29043 126.15334 23417 ft 419 kts 17°
2026-05-06 00:24 32.31805 126.16510 23174 ft 417 kts 17°
2026-05-06 00:24 32.34506 126.17662 22926 ft 415 kts 17°
2026-05-06 00:25 32.37236 126.18827 22679 ft 414 kts 17°
2026-05-06 00:25 32.39923 126.19972 22433 ft 412 kts 17°
2026-05-06 00:25 32.42641 126.21133 22183 ft 411 kts 17°
2026-05-06 00:25 32.45309 126.22275 21937 ft 409 kts 17°
2026-05-06 00:26 32.47983 126.23421 21689 ft 407 kts 17°
2026-05-06 00:26 32.50624 126.24550 21443 ft 407 kts 17°
2026-05-06 00:26 32.53304 126.25694 21197 ft 406 kts 17°
2026-05-06 00:26 32.55966 126.26832 20951 ft 405 kts 17°
2026-05-06 00:27 32.58610 126.27962 20705 ft 403 kts 17°
2026-05-06 00:27 32.61222 126.29079 20462 ft 402 kts 17°
2026-05-06 00:27 32.63859 126.30210 20216 ft 401 kts 17°
2026-05-06 00:27 32.66481 126.31336 19970 ft 399 kts 17°
2026-05-06 00:28 32.69086 126.32457 19723 ft 399 kts 17°
2026-05-06 00:28 32.71701 126.33582 19476 ft 398 kts 17°
2026-05-06 00:28 32.74297 126.34700 19233 ft 396 kts 17°
2026-05-06 00:28 32.76850 126.35799 18992 ft 394 kts 17°
2026-05-06 00:29 32.79427 126.36912 18746 ft 393 kts 17°
2026-05-06 00:29 32.82001 126.38023 18499 ft 392 kts 17°
2026-05-06 00:29 32.84581 126.39136 18254 ft 391 kts 17°
2026-05-06 00:29 32.87109 126.40228 18012 ft 389 kts 17°
2026-05-06 00:30 32.89664 126.41335 17768 ft 388 kts 17°
2026-05-06 00:30 32.92181 126.42423 17527 ft 387 kts 17°
2026-05-06 00:30 32.94725 126.43524 17283 ft 386 kts 17°
2026-05-06 00:30 32.97229 126.44609 17043 ft 385 kts 18°
2026-05-06 00:31 32.99716 126.45858 16794 ft 386 kts 23°
2026-05-06 00:31 33.02063 126.47346 16524 ft 385 kts 28°
2026-05-06 00:31 33.04343 126.49079 16217 ft 384 kts 31°
2026-05-06 00:31 33.06540 126.50832 15810 ft 382 kts 32°
2026-05-06 00:32 33.08720 126.52586 15349 ft 379 kts 32°
2026-05-06 00:32 33.10889 126.54330 14854 ft 376 kts 32°
2026-05-06 00:32 33.13064 126.56074 14343 ft 374 kts 32°
2026-05-06 00:32 33.15222 126.57801 13826 ft 373 kts 32°
2026-05-06 00:33 33.17379 126.59529 13315 ft 371 kts 32°
2026-05-06 00:33 33.19511 126.61234 12797 ft 369 kts 32°
2026-05-06 00:33 33.21637 126.62936 12279 ft 367 kts 32°
2026-05-06 00:33 33.23734 126.64614 11774 ft 364 kts 32°
2026-05-06 00:34 33.25922 126.66034 11283 ft 358 kts 16°
2026-05-06 00:34 33.28369 126.66286 11102 ft 350 kts 351°
2026-05-06 00:34 33.30721 126.65520 11108 ft 350 kts 340°
2026-05-06 00:34 33.33011 126.64584 11111 ft 350 kts 340°
2026-05-06 00:35 33.35341 126.63644 11108 ft 350 kts 340°
2026-05-06 00:35 33.37679 126.62905 11096 ft 351 kts 350°
2026-05-06 00:35 33.40133 126.62762 11092 ft 353 kts
2026-05-06 00:35 33.42573 126.63137 11103 ft 355 kts
2026-05-06 00:36 33.45026 126.63650 11106 ft 355 kts
2026-05-06 00:36 33.47431 126.64162 11101 ft 355 kts
2026-05-06 00:36 33.49868 126.64670 11102 ft 355 kts
2026-05-06 00:36 33.52328 126.65172 11110 ft 355 kts
2026-05-06 00:37 33.54731 126.65768 11113 ft 356 kts 14°
2026-05-06 00:37 33.57086 126.66732 11109 ft 357 kts 22°
2026-05-06 00:37 33.59317 126.67990 11100 ft 357 kts 25°
2026-05-06 00:37 33.61528 126.69338 11108 ft 357 kts 26°
2026-05-06 00:38 33.63739 126.70702 11108 ft 358 kts 26°
2026-05-06 00:38 33.65955 126.72066 11106 ft 358 kts 26°
2026-05-06 00:38 33.68189 126.73435 11094 ft 358 kts 26°
2026-05-06 00:38 33.70418 126.74799 11009 ft 357 kts 26°
2026-05-06 00:39 33.72625 126.76147 10975 ft 357 kts 26°
2026-05-06 00:39 33.74841 126.77501 10946 ft 357 kts 26°
2026-05-06 00:39 33.77033 126.78841 10806 ft 357 kts 25°
2026-05-06 00:39 33.79248 126.80195 10531 ft 350 kts 26°
2026-05-06 00:40 33.81355 126.81484 10372 ft 336 kts 26°
2026-05-06 00:40 33.83364 126.82714 10259 ft 312 kts 25°
2026-05-06 00:40 33.85230 126.83859 10145 ft 292 kts 25°
2026-05-06 00:40 33.87030 126.84970 10009 ft 284 kts 28°
2026-05-06 00:41 33.88438 126.86508 9933 ft 271 kts 60°
2026-05-06 00:41 33.89051 126.88593 9956 ft 265 kts 76°
2026-05-06 00:41 33.89429 126.90756 9954 ft 264 kts 78°
2026-05-06 00:41 33.89805 126.92898 9955 ft 265 kts 77°
2026-05-06 00:42 33.90231 126.95081 9956 ft 265 kts 75°
2026-05-06 00:42 33.90675 126.97213 9956 ft 265 kts 75°
2026-05-06 00:42 33.91083 126.99364 9951 ft 265 kts 85°
2026-05-06 00:42 33.90751 127.01509 9942 ft 264 kts 121°
2026-05-06 00:43 33.89569 127.03172 9961 ft 263 kts 138°
2026-05-06 00:43 33.88193 127.04653 9961 ft 262 kts 140°
2026-05-06 00:43 33.86847 127.06115 9960 ft 262 kts 138°
2026-05-06 00:43 33.85476 127.07550 9958 ft 261 kts 144°
2026-05-06 00:44 33.83968 127.08749 9856 ft 255 kts 154°
2026-05-06 00:44 33.82272 127.09252 9448 ft 252 kts 188°
2026-05-06 00:44 33.80678 127.08508 9090 ft 248 kts 219°
2026-05-06 00:44 33.79575 127.06957 8747 ft 245 kts 242°
2026-05-06 00:45 33.78772 127.05157 8398 ft 245 kts 242°
2026-05-06 00:45 33.77966 127.03363 8062 ft 245 kts 242°
2026-05-06 00:45 33.77152 127.01594 7837 ft 239 kts 241°
2026-05-06 00:45 33.76335 126.99849 7655 ft 240 kts 241°
2026-05-06 00:46 33.75512 126.98106 7408 ft 239 kts 241°
2026-05-06 00:46 33.74699 126.96396 7136 ft 238 kts 240°
2026-05-06 00:46 33.73871 126.94658 6850 ft 237 kts 240°
2026-05-06 00:46 33.73054 126.92954 6570 ft 235 kts 240°
2026-05-06 00:47 33.72242 126.91258 6296 ft 234 kts 240°
2026-05-06 00:47 33.71435 126.89578 6021 ft 233 kts 240°
2026-05-06 00:47 33.70628 126.87894 5749 ft 231 kts 240°
2026-05-06 00:47 33.69827 126.86225 5484 ft 230 kts 240°
2026-05-06 00:48 33.69036 126.84579 5219 ft 229 kts 239°
2026-05-06 00:48 33.68242 126.82930 4944 ft 228 kts 240°
2026-05-06 00:48 33.67452 126.81290 4672 ft 227 kts 240°
2026-05-06 00:48 33.66663 126.79652 4461 ft 222 kts 240°
2026-05-06 00:49 33.65906 126.78082 4253 ft 217 kts 240°
2026-05-06 00:49 33.65187 126.76588 4238 ft 198 kts 240°
2026-05-06 00:49 33.64504 126.75195 4054 ft 189 kts 239°
2026-05-06 00:49 33.63831 126.73875 3804 ft 184 kts 238°
2026-05-06 00:50 33.63162 126.72577 3586 ft 181 kts 238°
2026-05-06 00:50 33.62508 126.71302 3376 ft 181 kts 238°
2026-05-06 00:50 33.61848 126.70015 3160 ft 180 kts 238°
2026-05-06 00:50 33.61194 126.68735 2949 ft 179 kts 238°
2026-05-06 00:51 33.60544 126.67463 2875 ft 178 kts 238°
2026-05-06 00:51 33.59911 126.66183 2874 ft 179 kts 238°
2026-05-06 00:51 33.59293 126.64941 2843 ft 165 kts 238°
2026-05-06 00:51 33.58722 126.63812 2708 ft 155 kts 238°
2026-05-06 00:52 33.58168 126.62729 2530 ft 151 kts 237°
2026-05-06 00:52 33.57637 126.61697 2305 ft 141 kts 237°
2026-05-06 00:52 33.57122 126.60699 2118 ft 139 kts 236°
2026-05-06 00:52 33.56610 126.59708 1936 ft 139 kts 236°
2026-05-06 00:53 33.56104 126.58727 1759 ft 138 kts 236°
2026-05-06 00:53 33.55600 126.57751 1581 ft 137 kts 237°
2026-05-06 00:53 33.55105 126.56789 1405 ft 137 kts 237°
2026-05-06 00:53 33.54599 126.55810 1226 ft 137 kts 237°
2026-05-06 00:54 33.54090 126.54833 1038 ft 137 kts 237°
2026-05-06 00:54 33.53596 126.53851 847 ft 138 kts 239°
2026-05-06 00:54 33.53091 126.52873 661 ft 138 kts 238°
2026-05-06 00:54 33.52583 126.51901 481 ft 138 kts 238°
2026-05-06 00:55 33.52074 126.50928 323 ft 138 kts 240°
2026-05-06 00:55 33.51577 126.49946 147 ft 138 kts 240°
2026-05-06 00:55 33.51102 126.49014 74 ft 110 kts 239°
2026-05-06 00:55 33.50790 126.48408 70 ft 55 kts 239°
2026-05-06 00:56 33.50602 126.48189 79 ft 25 kts 208°
2026-05-06 00:56 33.50515 126.48230 84 ft 15 kts 81°
2026-05-06 00:56 33.50563 126.48344 82 ft 12 kts 55°
2026-05-06 00:56 33.50608 126.48431 81 ft 13 kts 59°
2026-05-06 00:57 33.50663 126.48538 79 ft 20 kts 58°
2026-05-06 00:57 33.50745 126.48695 77 ft 24 kts 59°
2026-05-06 00:57 33.50788 126.48843 77 ft 14 kts 127°
2026-05-06 00:57 33.50712 126.48903 81 ft 10 kts 160°
2026-05-06 00:58 33.50654 126.48861 83 ft 7 kts 223°
2026-05-06 00:58 33.50615 126.48876 84 ft 6 kts 138°
2026-05-06 00:58 33.50582 126.48903 85 ft 5 kts 149°
2026-05-06 00:58 33.50561 126.48918 86 ft 0 kts 148°